GW0707 Weather Reports


time (UTC)temp
F
wind
direction
speed
knots
gust
knots
rain 1hr
in
rain 24hr
in
rain mn
in
humidity
%
barometer
mb
20260508121803 69 204 7.8 16.5 0.00 0.01 0.01 55 1007.8
20260508120903 68 194 7.0 14.8 0.00 0.01 0.01 57 1007.9
20260508120004 67 204 7.0 13.0 0.00 0.01 0.01 58 1007.9
20260508115403 66 201 7.0 13.0 0.00 0.01 0.01 57 1008.2
20260508114503 68 212 7.8 14.8 0.00 0.01 0.01 57 1008.2
20260508113603 67 223 7.0 13.9 0.00 0.01 0.01 57 1008.3
20260508112703 66 201 7.8 18.2 0.00 0.01 0.01 58 1008.4
20260508111803 66 207 9.6 19.1 0.00 0.01 0.01 57 1008.4
20260508110903 67 216 7.0 15.6 0.00 0.01 0.01 58 1008.6
20260508110003 67 202 7.8 15.6 0.00 0.01 0.01 59 1008.5
20260508105403 65 209 7.0 14.8 0.00 0.01 0.01 61 1008.7
20260508104504 64 213 6.1 13.0 0.00 0.01 0.01 61 1008.6
20260508103813 64 208 7.0 13.0 0.00 0.01 0.01 62 1008.9
20260508102703 64 192 5.2 13.0 0.00 0.01 0.01 64 1008.7
20260508101803 64 201 3.5 12.2 0.00 0.01 0.01 66 1008.8
20260508101113 63 189 5.2 12.2 0.00 0.01 0.01 66 1008.8
20260508100004 62 177 5.2 9.6 0.00 0.01 0.01 67 1008.8
20260508095403 62 193 4.3 7.8 0.00 0.01 0.01 70 1008.8
20260508094503 61 230 3.5 7.0 0.00 0.01 0.01 72 1009.3
20260508093603 61 197 6.1 16.5 0.00 0.01 0.01 72 1009.2
20260508092703 61 204 7.0 15.6 0.00 0.01 0.01 71 1009.3
20260508092013 60 200 3.5 9.6 0.00 0.01 0.01 75 1009.2
20260508090903 60 191 3.5 8.7 0.00 0.01 0.01 75 1009.4
20260508090003 60 216 2.6 5.2 0.00 0.01 0.01 79 1009.3
20260508085404 59 223 2.6 5.2 0.00 0.01 0.01 79 1009.5
20260508084503 59 203 0.9 3.5 0.00 0.01 0.01 80 1009.6
20260508083603 58 197 0.9 3.5 0.00 0.01 0.01 80 1009.5
20260508082703 58 163 1.7 3.5 0.00 0.01 0.01 80 1009.5
20260508081803 58 178 1.7 2.6 0.00 0.01 0.01 81 1009.4
20260508080904 57 191 1.7 5.2 0.01 0.01 0.01 82 1009.6
20260508080003 57 197 2.6 5.2 0.01 0.01 0.01 82 1009.5
20260508075403 57 193 2.6 6.1 0.01 0.01 0.01 83 1009.4
20260508074503 56 198 1.7 3.5 0.01 0.01 0.01 84 1009.3
20260508073603 56 197 0.9 2.6 0.01 0.01 0.01 85 1009.3
20260508072913 56 164 0.9 2.6 0.01 0.01 0.01 85 1009.3
20260508071803 55 222 0.0 0.9 0.01 0.01 0.01 85 1009.4
20260508070903 55 38 0.0 0.9 0.00 0.00 0.00 85 1009.3
20260508070004 55 44 0.0 1.7 0.00 0.00 0.00 85 1009.3
20260508065403 55 275 0.0 0.9 0.00 0.00 0.00 84 1009.1
20260508064503 55 276 0.0 0.9 0.00 0.00 0.00 84 1009.1
20260508063603 54 291 0.0 0.9 0.00 0.00 0.00 83 1009.3
20260508062703 54 79 0.0 1.7 0.00 0.00 0.00 83 1009.1
20260508061803 54 355 0.0 0.9 0.00 0.00 0.00 83 1009.1
20260508060903 54 351 0.0 0.9 0.00 0.00 0.00 86 1009.0
20260508060004 54 312 0.0 0.9 0.00 0.00 0.00 85 1008.7
20260508055403 54 0 0.0 0.0 0.00 0.00 0.00 85 1008.8
20260508054503 54 0 0.0 0.0 0.00 0.00 0.00 85 1008.9
20260508053603 54 321 0.9 1.7 0.00 0.00 0.00 84 1008.6
20260508052703 54 335 0.0 1.7 0.00 0.00 0.00 85 1008.5
20260508052014 54 45 0.9 2.6 0.00 0.00 0.00 84 1008.2
20260508050903 54 8 0.0 1.7 0.00 0.00 0.00 84 1008.5
20260508050003 54 248 0.0 0.9 0.00 0.00 0.00 83 1008.7
20260508045403 54 247 0.0 0.9 0.00 0.00 0.00 84 1008.8
20260508044504 54 233 0.0 1.7 0.00 0.00 0.00 84 1008.4
20260508043603 54 213 0.9 1.7 0.00 0.00 0.00 84 1008.6
20260508042703 54 214 0.0 0.9 0.00 0.00 0.00 83 1008.3
20260508041803 54 272 0.0 0.9 0.00 0.00 0.00 83 1008.3
20260508040903 54 321 0.0 0.9 0.00 0.00 0.00 83 1008.3
20260508040004 54 302 0.9 1.7 0.00 0.00 0.00 82 1008.4
20260508035403 54 286 0.0 0.9 0.00 0.00 0.00 83 1008.4
20260508034713 54 285 0.0 0.9 0.00 0.00 0.00 83 1008.5
20260508033603 54 0 0.0 0.0 0.00 0.00 0.00 84 1008.2
20260508032703 54 0 0.0 0.0 0.00 0.00 0.00 82 1008.3
20260508031803 54 0 0.0 0.0 0.00 0.00 0.00 82 1008.5
20260508030903 54 0 0.0 0.0 0.00 0.00 0.00 82 1008.5
20260508030003 54 0 0.0 0.0 0.00 0.00 0.00 83 1008.6
20260508025404 54 0 0.0 0.0 0.00 0.00 0.00 84 1008.5
20260508024713 54 0 0.0 0.0 0.00 0.00 0.00 83 1008.8
20260508023603 54 0 0.0 0.0 0.00 0.00 0.00 83 1008.7
20260508022703 54 0 0.0 0.0 0.00 0.00 0.00 83 1008.7
20260508021804 55 0 0.0 0.0 0.00 0.00 0.00 83 1008.9
20260508020903 55 287 0.0 1.7 0.00 0.00 0.00 82 1009.0
20260508020003 55 311 0.0 1.7 0.00 0.00 0.00 82 1008.9
20260508015403 55 296 0.0 0.9 0.00 0.00 0.00 82 1008.7
20260508014714 55 277 0.0 0.9 0.00 0.00 0.00 82 1008.9
20260508013603 55 0 0.0 0.0 0.00 0.00 0.00 82 1009.4
20260508012703 55 0 0.0 0.0 0.00 0.00 0.00 82 1009.1
20260508011803 55 274 0.0 0.9 0.00 0.00 0.00 82 1009.2
20260508010903 55 279 0.0 0.9 0.00 0.00 0.00 82 1009.4
20260508010003 55 278 0.0 0.9 0.00 0.00 0.00 80 1009.1
20260508005403 55 277 0.0 0.9 0.00 0.00 0.00 79 1009.3
20260508004714 55 290 0.9 1.7 0.00 0.00 0.00 81 1009.5
20260508003603 55 359 0.0 1.7 0.00 0.00 0.00 81 1009.4
20260508002914 56 310 0.0 1.7 0.00 0.00 0.00 80 1009.3
20260508001803 56 306 0.9 1.7 0.00 0.00 0.00 79 1009.4
20260508000903 56 267 0.9 2.6 0.00 0.00 0.00 79 1009.6
20260508000214 56 236 0.0 0.9 0.00 0.00 0.00 78 1009.5
20260507235403 56 225 0.0 0.9 0.00 0.00 0.00 78 1009.6
20260507234503 56 220 0.9 1.7 0.00 0.00 0.00 78 1009.6
20260507233603 56 266 0.0 0.9 0.00 0.00 0.00 79 1009.7
20260507232703 56 278 0.9 1.7 0.00 0.00 0.00 78 1009.5
20260507231803 57 285 0.9 0.9 0.00 0.00 0.00 77 1009.4
20260507231113 57 271 0.9 1.7 0.00 0.00 0.00 76 1009.4
20260507230220 57 277 0.9 1.7 0.00 0.00 0.00 76 1009.7
20260507225404 57 319 0.9 1.7 0.00 0.00 0.00 76 1009.5
20260507224713 57 308 0.9 1.7 0.00 0.00 0.00 76 1009.5
20260507223603 57 304 0.9 1.7 0.00 0.00 0.00 75 1010.0
20260507222703 58 290 0.9 1.7 0.00 0.00 0.00 76 1010.0
20260507221803 58 315 0.9 2.6 0.00 0.00 0.00 75 1010.0
20260507220903 58 323 1.7 2.6 0.00 0.00 0.00 74 1010.3
20260507220003 58 322 2.6 5.2 0.00 0.00 0.00 74 1010.0
20260507215403 58 317 2.6 5.2 0.00 0.00 0.00 73 1010.4
20260507214503 58 313 1.7 3.5 0.00 0.00 0.00 73 1010.5
20260507213603 58 306 1.7 2.6 0.00 0.00 0.00 74 1010.4
20260507212703 58 312 1.7 5.2 0.00 0.00 0.00 74 1010.5
20260507211803 58 313 1.7 3.5 0.00 0.00 0.00 74 1010.4
20260507210904 58 318 2.6 5.2 0.00 0.00 0.00 74 1010.6
20260507210003 58 327 1.7 5.2 0.00 0.00 0.00 73 1010.4
20260507205403 58 330 1.7 5.2 0.00 0.00 0.00 73 1010.5
20260507204504 59 324 1.7 5.2 0.00 0.00 0.00 73 1010.1
20260507203603 59 338 1.7 3.5 0.00 0.00 0.00 73 1010.3
20260507202703 59 319 1.7 5.2 0.00 0.00 0.00 73 1010.0
20260507201803 59 298 1.7 3.5 0.00 0.00 0.00 73 1010.0
20260507200903 59 300 2.6 5.2 0.00 0.00 0.00 73 1009.7
20260507200004 59 302 1.7 3.5 0.00 0.00 0.00 73 1009.8
20260507195615 59 307 2.6 5.2 0.00 0.00 0.00 72 1009.8
20260507194503 60 315 2.6 6.1 0.00 0.00 0.00 72 1009.5
20260507193604 60 313 2.6 6.1 0.00 0.00 0.00 71 1009.5
20260507192703 60 317 2.6 7.0 0.00 0.00 0.00 71 1009.5
20260507192014 60 321 2.6 7.0 0.00 0.00 0.00 70 1009.6
20260507190903 61 326 3.5 7.0 0.00 0.00 0.00 70 1009.3
20260507190005 61 338 4.3 9.6 0.00 0.00 0.00 69 1009.5
20260507185403 61 341 4.3 9.6 0.00 0.00 0.00 69 1009.3
20260507184713 61 323 3.5 9.6 0.00 0.00 0.00 69 1009.2
20260507183603 62 316 6.1 11.3 0.00 0.00 0.00 68 1009.3
20260507182703 62 311 4.3 9.6 0.00 0.00 0.00 68 1009.0
20260507181803 62 311 4.3 9.6 0.00 0.00 0.00 68 1009.2
20260507180903 63 321 5.2 12.2 0.00 0.00 0.00 67 1008.9
20260507180003 63 324 5.2 12.2 0.00 0.00 0.00 66 1008.9
20260507175403 63 332 6.1 13.0 0.00 0.00 0.00 65 1008.8
20260507174713 64 341 5.2 13.0 0.00 0.00 0.00 64 1008.8
20260507173603 64 335 5.2 12.2 0.00 0.00 0.00 62 1008.9
20260507172703 64 334 5.2 8.7 0.00 0.00 0.00 63 1009.1
20260507171804 64 335 5.2 18.2 0.00 0.00 0.00 64 1009.0
20260507170903 64 346 7.8 18.2 0.00 0.00 0.00 64 1008.9
20260507170003 65 324 8.7 15.6 0.00 0.00 0.00 64 1009.1
20260507165403 65 326 6.1 13.0 0.00 0.00 0.00 63 1008.8
20260507164503 67 344 5.2 13.9 0.00 0.00 0.00 60 1008.8
20260507163604 68 324 6.1 15.6 0.00 0.00 0.00 59 1008.8
20260507162703 67 321 6.1 13.9 0.00 0.00 0.00 60 1008.7
20260507161803 68 342 5.2 13.0 0.00 0.00 0.00 60 1008.4
20260507160904 65 328 5.2 11.3 0.00 0.00 0.00 64 1008.6
20260507160003 65 321 7.0 13.9 0.00 0.00 0.00 64 1008.6
20260507155613 65 321 7.8 13.9 0.00 0.00 0.00 63 1008.7
20260507154503 67 345 5.2 12.2 0.00 0.00 0.00 60 1008.4
20260507153604 67 325 5.2 12.2 0.00 0.00 0.00 60 1008.4
20260507152703 66 360 6.1 13.9 0.00 0.00 0.00 62 1008.7
20260507151803 67 338 6.1 13.0 0.00 0.00 0.00 60 1008.5
20260507150903 67 330 6.1 11.3 0.00 0.00 0.00 59 1008.7
20260507150213 67 342 6.1 13.0 0.00 0.00 0.00 59 1008.6
20260507145403 67 335 6.1 13.9 0.00 0.00 0.00 59 1008.9
20260507144503 67 1 7.0 13.9 0.00 0.00 0.00 60 1008.9
20260507143603 69 329 6.1 15.6 0.00 0.00 0.00 59 1009.0
20260507142703 71 322 7.0 14.8 0.00 0.00 0.00 59 1009.0
20260507142014 70 319 6.1 14.8 0.00 0.00 0.00 60 1009.0
20260507140903 71 313 5.2 11.3 0.00 0.00 0.00 56 1008.9
20260507140003 70 320 6.1 13.9 0.00 0.00 0.00 57 1009.0
20260507135403 70 310 6.1 13.0 0.00 0.00 0.00 57 1009.0
20260507134503 70 301 6.1 12.2 0.00 0.00 0.00 56 1009.2
20260507133813 69 316 7.0 18.2 0.00 0.00 0.00 57 1009.2
20260507132703 69 332 7.8 16.5 0.00 0.00 0.00 58 1009.3
20260507131803 69 315 5.2 13.9 0.00 0.00 0.00 59 1009.3
20260507130903 67 304 7.8 13.9 0.00 0.00 0.00 60 1009.4
20260507130004 69 308 5.2 12.2 0.00 0.00 0.00 59 1009.3
20260507125403 68 317 5.2 8.7 0.00 0.00 0.00 59 1009.2
20260507124503 68 314 3.5 8.7 0.00 0.00 0.00 61 1009.5
20260507123603 68 331 4.3 11.3 0.00 0.00 0.00 58 1009.3
20260507122705 67 335 4.3 9.6 0.00 0.00 0.00 62 1009.6